Location: Kumla
(59.1265°N, 15.1401°E)
Time: 15:59:00
(UTC+01:00)

Altair - All Passes

Search period start: 03 December 2023 00:00
Search period end: 13 December 2023 00:00
Orbit: 1501 x 1682 km, 47.2° (Epoch: 02 December)

Date Brightness Start Highest point End Pass type
(mag) Time Alt. Az. Time Alt. Az. Time Alt. Az.
03 Dec - 07:05:23 10° SE 07:07:54 11° SE 07:10:23 10° ESE visible
03 Dec - 09:02:18 10° SSW 09:09:56 28° SSE 09:17:22 10° E daylight
03 Dec - 11:04:19 10° WSW 11:12:50 40° S 11:21:09 10° ESE daylight
03 Dec - 13:07:47 10° W 13:15:55 35° SSW 13:23:54 10° SE daylight
03 Dec - 15:12:30 10° W 15:18:22 19° SW 15:24:12 10° S daylight
04 Dec - 06:42:06 10° SE 06:42:56 10° SE 06:43:45 10° ESE visible
04 Dec - 08:37:22 10° SSW 08:44:53 27° SSE 08:52:12 10° E daylight
04 Dec - 10:39:14 10° WSW 10:47:45 39° S 10:56:04 10° ESE daylight
04 Dec - 12:42:38 10° WSW 12:50:51 36° SSW 12:58:54 10° SE daylight
04 Dec - 14:47:12 10° W 14:53:22 20° SW 14:59:30 10° S daylight
05 Dec - 08:12:28 10° SSW 08:19:50 26° SSE 08:27:01 10° E daylight
05 Dec - 10:14:08 10° SW 10:22:40 39° S 10:30:58 10° ESE daylight
05 Dec - 12:17:29 10° WSW 12:25:47 37° SSW 12:33:53 10° SE daylight
05 Dec - 14:21:55 10° W 14:28:21 22° SW 14:34:45 10° S daylight
06 Dec - 07:47:34 10° SSW 07:54:47 25° SE 08:01:50 10° E daylight
06 Dec - 09:49:03 10° SW 09:57:35 38° S 10:05:52 10° ESE daylight
06 Dec - 11:52:20 10° WSW 12:00:42 38° SSW 12:08:53 10° SE daylight
06 Dec - 13:56:39 10° W 14:03:21 23° SW 14:09:58 10° S daylight
07 Dec - 07:22:42 10° SSW 07:29:45 23° SE 07:36:37 10° E visible
07 Dec - 09:23:58 10° SW 09:32:30 38° SSE 09:40:46 10° ESE daylight
07 Dec - 11:27:11 10° WSW 11:35:37 38° SSW 11:43:51 10° SE daylight
07 Dec - 13:31:24 10° W 13:38:19 24° SW 13:45:10 10° SSE daylight
08 Dec - 06:57:51 10° S 07:04:43 22° SE 07:11:24 10° E visible
08 Dec - 08:58:54 10° SW 09:07:24 37° SSE 09:15:40 10° ESE daylight
08 Dec - 11:02:02 10° WSW 11:10:32 39° S 11:18:49 10° SE daylight
08 Dec - 13:06:10 10° W 13:13:18 25° SSW 13:20:20 10° SSE daylight
09 Dec - 06:33:03 10° S 06:39:41 21° SE 06:46:10 10° E visible
09 Dec - 08:33:50 10° SW 08:42:19 37° SSE 08:50:33 10° ESE daylight
09 Dec - 10:36:53 10° WSW 10:45:28 40° S 10:53:47 10° ESE daylight
09 Dec - 12:40:56 10° W 12:48:16 27° SSW 12:55:28 10° SSE daylight
10 Dec - 06:08:16 10° S 06:14:39 20° SE 06:20:55 10° E visible
10 Dec - 08:08:46 10° SW 08:17:14 36° SSE 08:25:25 10° E daylight
10 Dec - 10:11:44 10° WSW 10:20:21 40° S 10:28:44 10° ESE daylight
10 Dec - 12:15:42 10° W 12:23:14 28° SSW 12:30:36 10° SSE daylight
10 Dec - 14:23:05 10° WSW 14:25:09 11° SW 14:27:12 10° SW daylight
11 Dec - 05:43:32 10° S 05:49:38 19° SE 05:55:37 10° E visible
11 Dec - 07:43:43 10° SW 07:52:09 35° SSE 08:00:18 10° E visible
11 Dec - 09:46:35 10° WSW 09:55:16 40° S 10:03:41 10° ESE daylight
11 Dec - 11:50:30 10° W 11:58:11 29° SSW 12:05:42 10° SSE daylight
11 Dec - 13:57:02 10° WSW 14:00:11 12° SW 14:03:19 10° SSW daylight
12 Dec - 05:18:50 10° S 05:24:37 18° SE 05:30:17 10° E visible
12 Dec - 07:18:41 10° SW 07:27:03 34° SSE 07:35:10 10° E visible
12 Dec - 09:21:27 10° WSW 09:30:10 41° S 09:38:37 10° ESE daylight
12 Dec - 11:25:18 10° W 11:33:08 30° SSW 11:40:47 10° SSE daylight
12 Dec - 13:31:18 10° WSW 13:35:13 13° SW 13:39:06 10° SSW daylight
